Regional Weather Roundup
Issued by NWS Green Bay, WI

Home | Current Version | Previous Version | Text Only | Print | Product List | Glossary On
Versions: 1 2 3 4 5 6 7 8 9 10 11 12 13 14 15 16 17 18 19 20 21 22 23 24 25 26 27 28 29 30 31 32 33 34 35 36 37 38 39 40 41 42 43 44 45 46 47 48 49 50
000
ASUS43 KGRB 201159
RWRGRB

NORTH-CENTRAL AND NORTHEAST WISCONSIN REGIONAL WEATHER ROUNDUP
NATIONAL WEATHER SERVICE GREEN BAY WI
700 AM CDT SUN APR 20 2014

WIZ005-009-010>012-018-019-201300-
NORTH CENTRAL WISCONSIN

CITY           SKY/WX    TMP DP  RH WIND       PRES   REMARKS
IRONWOOD       PTCLDY    43  36  75 CALM      30.00S
MANITOWISH WTR NOT AVBL
ARBOR VITAE    NOT AVBL
EAGLE RIVER    NOT AVBL
LAND O LAKES   NOT AVBL
RHINELANDER    CLOUDY    48  39  71 S7        30.07R
PHILLIPS       NOT AVBL
ANTIGO         NOT AVBL
TOMAHAWK       NOT AVBL
MERRILL        NOT AVBL
$$

WIZ013-073-201300-
NORTHEAST WISCONSIN

CITY           SKY/WX    TMP DP  RH WIND       PRES   REMARKS
IRON MOUNTAIN  CLOUDY    42  40  92 CALM      30.08R FOG
MARINETTE      CLOUDY    43  37  81 S7        30.14R
$$

WIZ017-030-035>037-045-201300-
CENTRAL WISCONSIN

CITY           SKY/WX    TMP DP  RH WIND       PRES   REMARKS
MEDFORD        NOT AVBL
WAUSAU         CLOUDY    49  42  77 S12       30.06S
MOSINEE        LGT RAIN  48  45  87 SE7       30.10R
MARSHFIELD     CLOUDY    51  43  74 S12       30.07S
WISC RAPIDS    CLOUDY    56  37  49 S6        30.10S
STEVENS POINT  NOT AVBL
WAUPACA        NOT AVBL
SHAWANO        NOT AVBL
CLINTONVILLE   NOT AVBL
$$

WIZ038-039-048-051-201300-
FOX VALLEY

CITY           SKY/WX    TMP DP  RH WIND       PRES   REMARKS
NWS GREEN BAY  CLOUDY    49  42  77 S5        30.16R
APPLETON       DRIZZLE   48  41  76 S7        30.16R
OSHKOSH        CLOUDY    50  40  68 S13       30.14S
FOND DU LAC    LGT RAIN  51  39  63 S10       30.15R
$$

WIZ022-050-052-201300-
EAST CENTRAL WISCONSIN

CITY           SKY/WX    TMP DP  RH WIND       PRES   REMARKS
STURGEON BAY   CLOUDY    39  34  81 S15       30.17R
MANITOWOC      NOT AVBL
SHEBOYGAN      CLOUDY    43  34  70 S7        30.19R
$$

LMZ563-521-522-541>543-201300-
LAKESHORE

STATION/POSITION TIME  TEMP    WIND        PRES    VSBY  WAVE
                       AIR SEA DIR/SP/G                  HT/PER
                 (UTC) (F)     (DEG/KT/KT) (MB)    (MI)  (FT/S)
SHEBOYGAN LKSHOR 1100   40     180/ 14/ 16 1022.8F
KEWAUNEE LKSHORE 1100   39     170/ 22/ 26 1022.0F
NORTHPORT PIER   1100   40     160/ 11/ 18 1021.3F
SISTER BAY LKSHO 1100   38     180/ 26/ 32   N/A
MENOMINEE LKSHOR 1100   39     150/ 17/ 20 1021.0F
$$



USA.gov is the U.S. government's official web portal to all federal, state and local government web resources and services.